DW0051 Weather Reports


time (UTC)temp
C
wind
direction
speed
KPH
gust
KPH
rain 1hr
cm
rain 24hr
cm
rain mn
cm
humidity
%
barometer
mb
20260905223517 19 0.0 4.8 0.00 0.13 0.00 71 1024.4
20260905222557 19 0.0 6.4 0.00 0.13 0.00 71 1024.2
20260905221516 19 330 0.0 9.7 0.00 0.13 0.00 70 1024.1
20260905220516 19 326 0.0 6.4 0.00 0.13 0.00 70 1024.1
20260905215516 19 338 0.0 1.6 0.00 0.13 0.13 70 1024.0
20260905214516 19 332 0.0 8.0 0.00 0.13 0.13 70 1023.9
20260905213517 19 349 0.0 3.2 0.00 0.13 0.13 70 1023.8
20260905212516 19 225 0.0 9.7 0.00 0.13 0.13 70 1023.7
20260905211516 19 272 0.0 6.4 0.00 0.13 0.13 68 1023.7
20260905210516 19 277 0.0 3.2 0.00 0.13 0.13 68 1023.7
20260905205516 19 278 0.0 3.2 0.00 0.13 0.13 68 1023.6
20260905204516 19 267 0.0 4.8 0.00 0.13 0.13 67 1023.7
20260905203517 19 206 0.0 1.6 0.00 0.13 0.13 66 1023.5
20260905202517 20 206 0.0 4.8 0.00 0.13 0.13 66 1023.4
20260905201517 20 263 0.0 4.8 0.00 0.13 0.13 65 1023.5
20260905200516 20 245 0.0 8.0 0.00 0.13 0.13 65 1023.3
20260905195516 20 0.0 8.0 0.00 0.13 0.13 65 1023.3
20260905194516 20 226 1.6 8.0 0.00 0.13 0.13 66 1023.1
20260905193516 20 243 0.0 6.4 0.00 0.13 0.13 66 1023.1
20260905192516 20 0.0 0.0 0.00 0.13 0.13 66 1023.0
20260905191517 20 244 0.0 8.0 0.00 0.13 0.13 65 1023.0
20260905190516 20 0.0 4.8 0.00 0.13 0.13 65 1022.9
20260905185516 20 236 1.6 12.9 0.00 0.13 0.13 66 1022.7
20260905184516 20 225 1.6 9.7 0.00 0.13 0.13 67 1022.6
20260905183516 20 211 0.0 3.2 0.00 0.13 0.13 67 1022.6
20260905182516 20 0.0 0.0 0.00 0.13 0.13 65 1022.3
20260905181517 21 0.0 0.0 0.00 0.13 0.13 64 1022.2
20260905180517 21 211 0.0 6.4 0.00 0.13 0.13 63 1022.1
20260905175516 21 211 1.6 9.7 0.00 0.13 0.13 62 1021.9
20260905174516 21 237 0.0 4.8 0.00 0.13 0.13 61 1021.8
20260905173536 22 231 1.6 12.9 0.00 0.13 0.13 60 1021.7
20260905172536 22 227 3.2 14.5 0.00 0.13 0.13 59 1021.6
20260905171516 22 226 3.2 20.9 0.00 0.13 0.13 59 1021.6
20260905170516 22 219 3.2 19.3 0.00 0.13 0.13 58 1021.6
20260905165537 22 229 3.2 17.7 0.00 0.13 0.13 57 1021.6
20260905164516 22 219 1.6 12.9 0.00 0.13 0.13 57 1021.4
20260905163516 22 210 1.6 14.5 0.00 0.13 0.13 56 1021.4
20260905162556 23 233 4.8 25.7 0.00 0.13 0.13 56 1021.3
20260905161516 23 218 3.2 22.5 0.00 0.13 0.13 55 1021.3
20260905160516 23 230 4.8 22.5 0.00 0.13 0.13 55 1021.3
20260905155516 23 228 4.8 19.3 0.00 0.13 0.13 54 1021.3
20260905154517 23 215 6.4 19.3 0.00 0.13 0.13 53 1021.2
20260905153536 24 208 3.2 19.3 0.00 0.13 0.13 53 1021.2
20260905152516 24 221 4.8 14.5 0.00 0.13 0.13 52 1021.1
20260905151516 25 220 4.8 29.0 0.00 0.13 0.13 52 1021.0
20260905150516 25 222 1.6 17.7 0.00 0.13 0.13 51 1021.0
20260905145516 25 209 3.2 16.1 0.00 0.13 0.13 52 1021.0
20260905144516 25 233 3.2 32.2 0.00 0.13 0.13 52 1021.0
20260905143516 25 242 3.2 17.7 0.00 0.13 0.13 52 1021.1
20260905142516 25 215 3.2 27.4 0.00 0.13 0.13 52 1021.1
20260905141516 25 220 3.2 25.7 0.00 0.13 0.13 52 1021.1
20260905140516 25 204 3.2 19.3 0.00 0.13 0.13 53 1021.1
20260905135516 24 233 3.2 22.5 0.00 0.13 0.13 54 1021.2
20260905134516 23 211 4.8 27.4 0.00 0.13 0.13 55 1021.3
20260905133516 24 240 8.0 22.5 0.00 0.13 0.13 54 1021.3
20260905132516 24 224 6.4 27.4 0.00 0.13 0.13 54 1021.5
20260905131516 24 218 4.8 22.5 0.00 0.13 0.13 56 1021.5
20260905130515 24 217 4.8 20.9 0.00 0.13 0.13 55 1021.7
20260905125516 23 232 3.2 25.7 0.00 0.13 0.13 55 1021.8
20260905124516 24 225 4.8 22.5 0.00 0.13 0.13 56 1021.9
20260905123536 23 230 4.8 24.1 0.00 0.13 0.13 58 1021.8
20260905122516 23 311 3.2 16.1 0.00 0.13 0.13 58 1021.9
20260905121515 23 219 3.2 20.9 0.00 0.13 0.13 59 1021.8
20260905120516 23 214 6.4 22.5 0.00 0.13 0.13 59 1021.8
20260905115515 23 221 4.8 25.7 0.00 0.13 0.13 60 1021.8
20260905114535 23 257 3.2 22.5 0.00 0.13 0.13 60 1021.9
20260905113515 22 255 1.6 22.5 0.00 0.13 0.13 61 1022.0
20260905112515 22 228 3.2 25.7 0.00 0.13 0.13 61 1021.9
20260905111515 22 213 3.2 17.7 0.00 0.13 0.13 62 1021.8
20260905110556 22 238 3.2 25.7 0.00 0.13 0.13 65 1021.8
20260905105515 22 252 4.8 27.4 0.00 0.13 0.13 66 1021.7
20260905104515 21 200 6.4 27.4 0.00 0.13 0.13 69 1021.6
20260905103535 21 209 3.2 19.3 0.00 0.13 0.13 72 1021.6
20260905102515 20 235 1.6 16.1 0.00 0.13 0.13 74 1021.8
20260905101516 20 259 1.6 12.9 0.00 0.13 0.13 75 1021.9
20260905100515 20 227 1.6 17.7 0.00 0.13 0.13 75 1022.0
20260905095515 19 244 1.6 22.5 0.00 0.13 0.13 77 1022.0
20260905094516 20 197 1.6 12.9 0.00 0.13 0.13 76 1021.7
20260905093515 20 175 0.0 9.7 0.00 0.13 0.13 76 1021.8
20260905092515 20 196 0.0 11.3 0.00 0.13 0.13 77 1021.8
20260905091515 18 229 1.6 14.5 0.03 0.13 0.13 79 1021.8
20260905090516 18 289 0.0 4.8 0.05 0.13 0.13 80 1021.7
20260905085518 18 0.0 0.0 0.05 0.13 0.13 83 1021.7
20260905084517 17 0.0 0.0 0.05 0.13 0.13 85 1021.5
20260905083518 17 0.0 0.0 0.05 0.13 0.13 86 1021.8
20260905082517 17 0.0 0.0 0.05 0.13 0.13 85 1021.9
20260905081517 17 0.0 0.0 0.05 0.10 0.10 80 1022.3
20260905080558 17 0.0 9.7 0.03 0.08 0.08 77 1022.2
20260905075538 17 0.0 0.0 0.00 0.05 0.05 76 1022.3
20260905074517 17 0.0 0.0 0.00 0.05 0.05 77 1022.3
20260905073517 17 0.0 0.0 0.00 0.05 0.05 77 1022.5
20260905072517 17 0.0 4.8 0.00 0.05 0.05 77 1022.1
20260905071537 17 0.0 0.0 0.00 0.05 0.05 77 1022.6
20260905070517 17 0.0 0.0 0.00 0.05 0.05 78 1022.3
20260905065517 17 0.0 0.0 0.00 0.05 0.05 78 1021.6
20260905064518 17 0.0 0.0 0.00 0.05 0.05 77 1021.8
20260905063517 17 0.0 0.0 0.00 0.05 0.05 76 1022.1
20260905062517 17 0.0 0.0 0.00 0.05 0.05 75 1022.0
20260905061517 17 0.0 11.3 0.00 0.05 0.05 73 1021.5
20260905060517 18 0.0 0.0 0.00 0.05 0.05 72 1021.2
20260905055537 18 276 0.0 11.3 0.00 0.05 0.05 70 1021.1
20260905054517 17 248 0.0 6.4 0.00 0.05 0.05 74 1021.0
20260905053518 17 0.0 8.0 0.00 0.05 0.05 78 1020.4
20260905052517 17 0.0 1.6 0.00 0.05 0.05 85 1020.5
20260905051517 17 0.0 0.0 0.03 0.05 0.05 88 1019.7
20260905050517 17 86 0.0 8.0 0.05 0.05 0.05 88 1019.3
20260905045517 17 0.0 0.0 0.05 0.05 0.05 89 1019.0
20260905044517 17 0.0 0.0 0.05 0.05 0.05 88 1018.8
20260905043518 17 0.0 0.0 0.05 0.05 0.05 85 1018.7
20260905042517 18 0.0 0.0 0.05 0.05 0.05 82 1018.6
20260905041517 19 0.0 0.0 0.03 0.05 0.05 75 1018.9
20260905040517 19 0.0 0.0 0.00 0.03 0.03 74 1018.7
20260905035537 20 0.0 0.0 0.00 0.03 0.03 72 1018.4
20260905034517 20 0.0 6.4 0.00 0.03 0.03 72 1018.3
20260905033516 20 331 0.0 4.8 0.00 0.03 0.03 74 1018.2
20260905032517 20 58 0.0 4.8 0.03 0.03 0.03 76 1018.2
20260905031517 21 0.0 0.0 0.03 0.03 0.03 80 1017.0
20260905030516 20 213 0.0 4.8 0.03 0.03 0.03 81 1016.2
20260905025517 20 238 0.0 1.6 0.03 0.03 0.03 82 1016.0
20260905024516 22 0.0 0.0 0.03 0.03 0.03 75 1016.0
20260905023516 24 223 0.0 17.7 0.03 0.03 0.03 64 1015.8
20260905022516 24 0.0 0.0 0.00 0.00 0.00 55 1015.4
20260905021516 23 0.0 0.0 0.00 0.00 0.00 55 1015.4
20260905020517 23 0.0 0.0 0.00 0.00 0.00 56 1015.3
20260905015516 23 0.0 0.0 0.00 0.00 0.00 57 1015.2
20260905014516 22 0.0 0.0 0.00 0.00 0.00 59 1015.1
20260905013516 22 0.0 0.0 0.00 0.00 0.00 61 1015.0
20260905012516 21 0.0 0.0 0.00 0.00 0.00 63 1015.0
20260905011516 21 0.0 0.0 0.00 0.00 0.00 66 1015.0
20260905010516 20 0.0 0.0 0.00 0.00 0.00 69 1014.9
20260905005516 20 0.0 0.0 0.00 0.00 0.00 70 1014.8
20260905004537 19 0.0 0.0 0.00 0.00 0.00 71 1014.8
20260905003516 19 0.0 0.0 0.00 0.00 0.00 71 1014.8
20260905002516 19 0.0 0.0 0.00 0.00 0.00 72 1014.8
20260905001516 19 0.0 0.0 0.00 0.00 0.00 72 1014.7
20260905000536 19 0.0 0.0 0.00 0.00 0.00 72 1014.7
20260904235537 18 0.0 0.0 0.00 0.00 0.00 72 1014.7
20260904234516 18 0.0 0.0 0.00 0.00 0.00 73 1014.6
20260904233516 18 0.0 0.0 0.00 0.00 0.00 73 1014.6
20260904232516 18 0.0 0.0 0.00 0.00 0.00 73 1014.5
20260904231516 18 0.0 0.0 0.00 0.00 0.00 73 1014.5
20260904230515 19 0.0 0.0 0.00 0.00 0.00 72 1014.4
20260904225516 19 0.0 0.0 0.00 0.00 0.00 72 1014.3
20260904224516 19 0.0 0.0 0.00 0.00 0.00 71 1014.1